Home   Weather   Homburg (Saar)   Past weeks

Flag for Germany Past Weather in Homburg (Saar), Saarland, Germany — Yesterday and Last 2 Weeks

Now
45 °F

Partly sunny.


Feels Like: 45 °F
Forecast: 29 / 43 °F
Wind: 2 mph from North

Location: Saarbruecken / Ensheim

Current Time: Dec 9, 2016 at 2:35:34 pm

Latest Report: Dec 9, 2016 at 1:50 pm


Visibility: N/A

Pressure: 30.45 "Hg

Humidity: 71%

Dew Point: 36 °F

Location of Homburg (Saar)Location

Past Weather in Homburg (Saar) — Graph

°F

Homburg (Saar) Temperature Yesterday

Maximum temperature yesterday: 39 °F (at 2:20 pm)
Minimum temperature yesterday: 23 °F (at 5:20 am)
Average temperature yesterday: 32 °F

High & Low Weather Summary for the Past Weeks

 TemperatureHumidityPressure
High52 °F (Nov 24, 1:20 pm)100% (Nov 27, 2:50 am)30.54 "Hg (Nov 27, 2:50 am)
Low19 °F (Nov 30, 6:50 am)48% (Nov 29, 1:20 pm)29.92 "Hg (Nov 25, 5:20 am)
Average34 °F85%30.28 "Hg
* Reported Nov 24 1:20 pm — Dec 9 1:20 pm, Homburg (Saar), Weather by CustomWeather, © 2016

Note: Actual official high and low records may vary slightly from our data, if they occured in-between our weather recording intervals... More about our weather records

Advertising

Homburg (Saar) Weather History for the Previous 24 Hours

Scroll right to see more
 ConditionsComfort  
Time TempWeatherWind HumidityBarometerVisibility
1:20 pm
Fri, Dec 9
45 °FPartly sunny.3 mph71%30.45 "HgN/A
12:50 pm43 °FBroken clouds.5 mph71%30.45 "HgN/A
12:20 pm41 °FPartly sunny.6 mph76%30.48 "HgN/A
11:50 am39 °FPartly sunny.3 mph75%30.48 "HgN/A
11:20 am39 °FPartly sunny.6 mph75%30.48 "HgN/A
10:50 am39 °FPartly sunny.6 mph75%30.48 "HgN/A
10:20 am37 °FPartly sunny.6 mph81%30.48 "HgN/A
9:50 am37 °FPartly sunny.2 mph81%30.48 "HgN/A
9:20 am36 °FPartly sunny.2 mph81%30.48 "HgN/A
8:50 am34 °FPartly sunny.1 mph81%30.48 "HgN/A
8:20 am32 °FScattered clouds.3 mph87%30.48 "HgN/A
7:50 am34 °FPassing clouds.6 mph81%30.45 "HgN/A
7:20 am34 °FPassing clouds.6 mph81%30.45 "HgN/A
6:50 am32 °FPassing clouds.3 mph87%30.45 "HgN/A
6:20 am32 °FPassing clouds.3 mph87%30.45 "HgN/A
5:20 am32 °FClear.3 mph87%30.45 "Hg10 mi
4:50 am32 °FClear.2 mph87%30.45 "Hg10 mi
4:20 am34 °FPassing clouds.3 mph81%30.45 "HgN/A
3:50 am32 °FClear.5 mph87%30.45 "Hg10 mi
3:20 am32 °FClear.3 mph87%30.45 "HgN/A
2:50 am32 °FClear.1 mph80%30.45 "HgN/A
2:20 am34 °FClear.2 mph81%30.45 "HgN/A
1:50 am34 °FClear.7 mph81%30.45 "HgN/A
1:20 am34 °FClear.5 mph81%30.45 "HgN/A
12:50 am32 °FClear.2 mph87%30.45 "HgN/A
12:20 am34 °FClear.2 mph81%30.45 "HgN/A
11:50 pm
Thu, Dec 8
32 °FClear.2 mph87%30.45 "HgN/A
11:20 pm34 °FClear.2 mph81%30.48 "HgN/A
10:50 pm34 °FPassing clouds.3 mph81%30.48 "HgN/A
10:20 pm34 °FClear.7 mph87%30.45 "Hg10 mi
9:50 pm36 °FClear.5 mph81%30.45 "Hg10 mi
9:20 pm36 °FClear.5 mph81%30.45 "Hg10 mi
8:50 pm34 °FClear.6 mph87%30.45 "Hg10 mi
8:20 pm36 °FClear.5 mph87%30.45 "Hg10 mi
7:50 pm36 °FClear.6 mph87%30.45 "Hg10 mi
7:20 pm36 °FPassing clouds.5 mph87%30.45 "HgN/A
6:50 pm37 °FClear.3 mph87%30.45 "Hg10 mi
6:20 pm36 °FPassing clouds.3 mph87%30.45 "HgN/A
5:50 pm39 °FClear.1 mph81%30.45 "Hg10 mi
5:20 pm36 °FClear.2 mph87%30.45 "Hg10 mi
4:50 pm37 °FClear.3 mph87%30.45 "Hg10 mi
4:20 pm37 °FPassing clouds.3 mph81%30.45 "HgN/A
3:50 pm39 °FSunny.5 mph81%30.45 "Hg10 mi
3:20 pm39 °FPassing clouds.3 mph81%30.45 "HgN/A
2:50 pm39 °FPassing clouds.5 mph81%30.45 "HgN/A
2:20 pm39 °FPassing clouds.6 mph81%30.45 "HgN/A
Weather by CustomWeather, © 2016

See weather overviewHow to use our weather pages